Regional Weather Roundup
Issued by NWS

Home | Current Version | Previous Version | Graphics & Text | Print | Product List | Glossary On
Versions: 1 2 3 4 5 6 7 8 9 10 11 12 13 14 15 16 17 18 19 20 21 22 23 24 25 26 27 28 29 30 31 32 33 34 35 36 37 38 39 40 41 42 43 44 45 46 47 48 49 50
000
ASUS43 KFSD 300210
RWRSD

WEATHER ROUNDUP FOR SOUTH DAKOTA
NATIONAL WEATHER SERVICE SIOUX FALLS SD
900 PM CDT WED JUL 29 2015

NOTE: "FAIR" INDICATES FEW OR NO CLOUDS BELOW 12,000 FEET WITH NO
SIGNIFICANT WEATHER AND/OR OBSTRUCTIONS TO VISIBILITY.


SDZ001>005-009-010-012>017-300300-
NORTHWEST AND NORTH CENTRAL SOUTH DAKOTA

CITY           SKY/WX    TMP DP  RH WIND       PRES   REMARKS
BUFFALO          N/A     74  40  29 NW10      30.09R
FAITH            N/A     75  42  30 NW6       30.12S
MOBRIDGE       CLEAR     72  59  63 N3        30.05R
$$

SDZ012>016-024>037-041>051-057-063-072>074-300300-
SOUTHWEST AND SOUTH CENTRAL SOUTH DAKOTA

CITY           SKY/WX    TMP DP  RH WIND       PRES   REMARKS
RAPID CTY ARPT CLEAR     70  55  59 N8        30.17R
PIERRE         CLEAR     79  43  27 W7        30.07R
CUSTER         CLEAR     68  37  32 W3        30.31S
ELLSWORTH AFB  CLEAR     79  42  26 NE6       30.17R
PHILIP         CLEAR     75  57  53 N3        30.12R
PINE RIDGE     CLEAR     74  52  46 NE8       30.17S
SPEARFISH      FAIR      66  50  55 S9        30.22S
WINNER         FAIR      80  48  32 CALM      30.13R
$$

SDZ004>011-016>023-039-040-300300-
NORTHEAST SOUTH DAKOTA

CITY           SKY/WX    TMP DP  RH WIND       PRES   REMARKS
ABERDEEN       CLEAR     74  50  42 NW5       30.04R
WATERTOWN      CLEAR     72  54  53 NW6       30.06R
BROOKINGS      CLEAR     72  55  56 W5        30.09R
SISSETON         N/A     71  57  61 W7        30.00R
$$

SDZ017-020-022-023-036>040-048>070-300300-
SOUTHEAST SOUTH DAKOTA

CITY           SKY/WX    TMP DP  RH WIND       PRES   REMARKS
SIOUX FALLS    PTCLDY    73  61  65 CALM      30.08S
HURON          CLEAR     73  61  65 CALM      30.06R
CHAMBERLAIN    CLEAR     74  55  51 W3        30.10R
MITCHELL       CLEAR     77  52  41 W6        30.08R
YANKTON        CLEAR     79  55  44 SW7       30.08S
$$

ABBREVIATIONS USED IN REMARKS
   TC - TEMPERATURE IN CELSIUS
  WCI - WIND CHILL INDEX
   HX - HEAT INDEX
  VSB - VISIBILITY




USA.gov is the U.S. government's official web portal to all federal, state and local government web resources and services.